This is the latest recevied weather packets stored in our database for station/object HS1IFU-13. If no packets are shown the sender has not sent any weather packets the latest 10 day(s).
| Time | Temp. | Humidity | Pressure | Rain* | Wind** | Luminosity | Snow |
|---|---|---|---|---|---|---|---|
| 1777910102 | 23.89° C | 59% | 1010 hPa | - | - | 0 W/m² | - |
| 1777909946 | 23.89° C | 49% | 1010 hPa | - | - | 0 W/m² | - |
| 1777909786 | 25° C | 49% | 1010 hPa | - | - | 0 W/m² | - |
| 1777909227 | 27.22° C | 71% | 1010 hPa | - | - | 0 W/m² | - |
| 1777908542 | 25° C | 74% | 1011 hPa | - | - | 0 W/m² | - |
| 1777907631 | 21.67° C | 46% | 1011 hPa | - | - | 0 W/m² | - |
| 1777907159 | 21.67° C | 46% | 1011 hPa | - | - | 0 W/m² | - |
| 1777906119 | 21.67° C | 46% | 1010 hPa | - | - | 0 W/m² | - |
| 1777905378 | 22.22° C | 45% | 1010 hPa | - | - | 0 W/m² | - |
| 1777905136 | 22.22° C | 46% | 1010 hPa | - | - | 0 W/m² | - |
| 1777904845 | 22.22° C | 45% | 1010 hPa | - | - | 0 W/m² | - |
| 1777904417 | 22.78° C | 45% | 1010 hPa | - | - | 0 W/m² | - |
| 1777904027 | 22.78° C | 45% | 1010 hPa | - | - | 0 W/m² | - |
| 1777902928 | 23.33° C | 45% | 1009 hPa | - | - | 0 W/m² | - |
| 1777902751 | 23.89° C | 44% | 1009 hPa | - | - | 0 W/m² | - |
| 1777902319 | 23.89° C | 44% | 1009 hPa | - | - | 0 W/m² | - |
| 1777899926 | 32.22° C | 38% | 1009 hPa | - | - | 0 W/m² | - |
| 1777899608 | 33.33° C | 42% | 1009 hPa | - | - | 0 W/m² | - |
| 1777899443 | 34.44° C | 47% | 1008 hPa | - | - | 0 W/m² | - |
| 1777899085 | 36.11° C | 45% | 1008 hPa | - | - | 0 W/m² | - |
| 1777898777 | 36.11° C | 46% | 1008 hPa | - | - | 0 W/m² | - |
| 1777898315 | 36.11° C | 46% | 1008 hPa | - | - | 0 W/m² | - |
| 1777897983 | 35.56° C | 46% | 1008 hPa | - | - | 0 W/m² | - |
| 1777897361 | 35° C | 47% | 1008 hPa | - | - | 0 W/m² | - |
| 1777896981 | 35° C | 47% | 1008 hPa | - | - | 0 W/m² | - |
* Rain since midnight (hover to see other rain measurements)
** Current wind speed in m/s (hover to see current wind gust speed)